SCP
0 0 0 0 0 0 0 0 0 0 0 0 0 0 0 0 0 0 0 0 0 0
0 0 0 0 0 0 0 0 0 0 0 0 0 0 0 0 0 0 0 0 0 0
0 0 0 0 0 0 0 0 0 0 0 0 0 0 0 0 0 0 0 0 0 0
0 0 0 0 0 0 0 0 0 0 0 0 0 0 0 0 0 0 0 0 0 0
0 0 0 0 0 0 0 0 0 0 0 0 0 0 0 0 0 0 0 0 0 0
0 0 0 0 0 0 0 0 0 0 0 0 0 0 0 0 0 0 0 0 0 0
0 0 0 0 0 0 0 0 0 0 0 0 0 0 0 0 0 0 0 0 0 0
0 0 0 0 0 0 0 0 0 0 0 0 0 0 0 0 0 0 0 0 0 0
0 0 0 0 0 0 0 0 0 0 0 0 0 0 0 0 0 0 0 0 0 0
0 0 0 0 0 0 0 0 0 0 0 0 0 0 0 0 0 0 0 0 0 0
0 0 0 0 0 0 0 0 0 0 0 0 0 0 0 0 0 0 0 0 0 0
0 0 0 0 0 0 0 0 0 0 0 0 0 0 0 0 0 0 0 0 0 0
0 0 0 0 0 0 0 0 0 0 0 0 0 0 0 0 0 0 0 0 0 0
0 0 0 0 0 0 0 0 0 0 0 0 0 0 0 0 0 0 0 0 0 0
Wind_Speed_500mb
24 23 22 22 20 18 18 20 22 24 26 28 30 32 34 36 38 39 40 40 39 40
27 26 26 25 24 24 24 25 25 26 26 29 32 34 37 39 41 42 42 41 39 37
29 30 30 31 31 31 30 28 27 28 29 30 33 35 38 39 41 41 40 38 36 34
35 34 35 37 37 38 36 35 34 33 33 33 34 36 37 37 37 36 35 33 31 28
39 39 40 41 43 44 42 41 39 38 38 38 36 36 36 34 33 31 30 27 25 23
47 46 45 45 45 47 47 46 46 44 42 41 39 36 34 31 29 27 26 25 24 24
52 51 50 51 52 51 50 48 47 47 44 42 40 37 34 31 29 27 27 27 27 26
56 55 56 56 55 55 53 51 50 48 46 44 41 39 37 35 32 31 31 30 30 30
63 63 62 60 57 56 54 52 49 46 44 42 40 40 38 37 35 34 32 32 32 33
68 68 65 61 59 57 54 50 47 45 43 42 41 40 37 35 35 35 34 33 32 31
68 70 68 66 62 56 52 48 46 45 44 44 43 40 33 31 35 35 32 31 31 31
65 69 68 67 60 55 52 50 49 49 49 47 44 44 36 33 34 33 30 31 30 34
59 61 63 62 59 56 53 51 50 49 49 48 46 48 39 34 34 31 31 35 36 35
48 52 57 58 60 57 55 53 52 51 51 49 47 46 40 31 28 32 38 34 35 36
Wind_Direction_500mb
227 224 222 226 232 237 246 261 274 282 287 291 294 296 296 296 294 291 288 285 281 276
227 232 238 242 245 247 257 266 273 278 283 289 294 297 299 297 294 292 288 284 278 273
234 245 253 256 255 255 263 266 268 273 281 288 292 293 294 293 292 289 285 279 275 272
245 253 260 260 260 264 263 263 266 272 276 279 283 287 289 289 288 285 282 279 275 270
251 257 262 264 264 264 263 265 266 269 271 274 278 281 284 285 285 283 279 274 266 257
254 258 263 265 265 264 265 266 267 267 269 272 275 277 278 277 273 270 267 261 253 249
257 260 263 265 265 263 264 265 267 268 269 270 272 273 272 268 265 262 257 253 252 255
260 261 263 265 266 266 266 266 266 266 266 267 267 265 262 258 254 252 251 253 257 263
260 261 262 263 264 264 264 263 263 262 261 259 258 258 258 254 250 249 254 261 267 272
260 260 261 261 260 261 260 260 260 259 258 257 257 256 255 253 251 254 258 262 268 274
259 259 257 256 256 256 256 256 255 254 252 251 252 252 252 249 250 253 259 265 272 280
263 258 254 252 252 254 254 253 253 252 251 250 251 255 248 249 251 256 262 268 274 277
265 260 254 252 251 252 250 249 247 246 245 245 244 250 243 239 245 256 272 273 276 280
263 258 252 248 246 244 243 240 240 238 238 239 239 242 249 245 248 264 263 267 271 274
Wind_Speed_850mb
24 23 22 22 20 18 18 20 22 24 26 28 30 32 34 36 38 39 40 40 39 40
27 26 26 25 24 24 24 25 25 26 26 29 32 34 37 39 41 42 42 41 39 37
29 30 30 31 31 31 30 28 27 28 29 30 33 35 38 39 41 41 40 38 36 34
35 34 35 37 37 38 36 35 34 33 33 33 34 36 37 37 37 36 35 33 31 28
39 39 40 41 43 44 42 41 39 38 38 38 36 36 36 34 33 31 30 27 25 23
47 46 45 45 45 47 47 46 46 44 42 41 39 36 34 31 29 27 26 25 24 24
52 51 50 51 52 51 50 48 47 47 44 42 40 37 34 31 29 27 27 27 27 26
56 55 56 56 55 55 53 51 50 48 46 44 41 39 37 35 32 31 31 30 30 30
63 63 62 60 57 56 54 52 49 46 44 42 40 40 38 37 35 34 32 32 32 33
68 68 65 61 59 57 54 50 47 45 43 42 41 40 37 35 35 35 34 33 32 31
68 70 68 66 62 56 52 48 46 45 44 44 43 40 33 31 35 35 32 31 31 31
65 69 68 67 60 55 52 50 49 49 49 47 44 44 36 33 34 33 30 31 30 34
59 61 63 62 59 56 53 51 50 49 49 48 46 48 39 34 34 31 31 35 36 35
48 52 57 58 60 57 55 53 52 51 51 49 47 46 40 31 28 32 38 34 35 36
Wind_Direction_850mb
227 224 222 226 232 237 246 261 274 282 287 291 294 296 296 296 294 291 288 285 281 276
227 232 238 242 245 247 257 266 273 278 283 289 294 297 299 297 294 292 288 284 278 273
234 245 253 256 255 255 263 266 268 273 281 288 292 293 294 293 292 289 285 279 275 272
245 253 260 260 260 264 263 263 266 272 276 279 283 287 289 289 288 285 282 279 275 270
251 257 262 264 264 264 263 265 266 269 271 274 278 281 284 285 285 283 279 274 266 257
254 258 263 265 265 264 265 266 267 267 269 272 275 277 278 277 273 270 267 261 253 249
257 260 263 265 265 263 264 265 267 268 269 270 272 273 272 268 265 262 257 253 252 255
260 261 263 265 266 266 266 266 266 266 266 267 267 265 262 258 254 252 251 253 257 263
260 261 262 263 264 264 264 263 263 262 261 259 258 258 258 254 250 249 254 261 267 272
260 260 261 261 260 261 260 260 260 259 258 257 257 256 255 253 251 254 258 262 268 274
259 259 257 256 256 256 256 256 255 254 252 251 252 252 252 249 250 253 259 265 272 280
263 258 254 252 252 254 254 253 253 252 251 250 251 255 248 249 251 256 262 268 274 277
265 260 254 252 251 252 250 249 247 246 245 245 244 250 243 239 245 256 272 273 276 280
263 258 252 248 246 244 243 240 240 238 238 239 239 242 249 245 248 264 263 267 271 274